Regional Weather Roundup
Issued by NWS

Home | Current Version | Previous Version | Text Only | Print | Product List | Glossary Off
Versions: 1 2 3 4 5 6 7 8 9 10 11 12 13 14 15 16 17 18 19 20 21 22 23 24 25 26 27 28 29 30 31 32 33 34 35 36 37 38 39 40 41 42 43 44 45 46 47 48 49 50

000
ASUS43 KDTX 020901
RWRMI
MICHIGAN HOURLY REGIONAL WEATHER ROUNDUP
NATIONAL WEATHER SERVICE DETROIT/PONTIAC MI
400 AM EST MON MAR 02 2015

NOTE: "FAIR" INDICATES FEW OR NO CLOUDS BELOW 12,000 FEET WITH NO
SIGNIFICANT WEATHER AND/OR OBSTRUCTION TO VISIBILITY.

MIZ047>049-052>055-059>063-066>070-074>076-081>083-021000-
SOUTHEAST LOWER MICHIGAN

CITY           SKY/WX    TMP DP  RH WIND       PRES   REMARKS
ADRIAN         CLEAR     20  14  77 W12       30.29R WCI   8
ALMA           CLEAR     19  11  72 W10       30.26R WCI   7
ANN ARBOR      LGT SNOW  22  17  81 W12       30.25R WCI  10
BAD AXE        MOCLDY    21  15  76 NW17      30.18R WCI   7
CARO           PTCLDY    19  10  70 W7        30.22R WCI   9
DETROIT CITY   LGT SNOW  25  17  72 W7        30.24R WCI  17
DETROIT        LGT SNOW  23  17  78 SW13      30.26R WCI  11
FLINT          PTCLDY    21  11  65 W13       30.24R WCI   9
GROSSE ILE     CLOUDY    21  16  79 W8        30.25R WCI  12
HILLSDALE      MOCLDY    20  17  86 W10       30.25S WCI   9
HOWELL         CLOUDY    22  18  85 W10       30.25R WCI  11

CITY           SKY/WX    TMP DP  RH WIND       PRES   REMARKS
JACKSON        LGT SNOW  21  17  84 W12       30.26R FOG     WCI   9
LAMBERTVILLE   CLEAR     23  18  80 W7        30.28F WCI  15
LANSING        PTCLDY    21  13  71 W10       30.27R WCI  10
LAPEER         PTSUNNY   22  12  66 NW12G20   30.21R WCI  10
MASON          CLOUDY    22  18  84 W10       30.26R WCI  12
MONROE         PTCLDY    19  14  79 W8        30.25S WCI   9
MT. CLEMENS    MOCLDY    23  16  74 W14       30.20S WCI  11
PONTIAC        PTCLDY    21  14  74 W16G24    30.21R WCI   7
PORT HOPE        N/A     23  12  62 W14G23    30.15R WCI  11
PORT HURON     MOCLDY    21  18  86 W3        30.20F
TRI CITIES     CLEAR     18   9  68 W8        30.23R WCI   8
TROY           PTCLDY    25  17  72 W10       30.25R WCI  15
SAGINAW HB     CLEAR     21  12  68 SW8       30.24R WCI  12
$$
MIZ043>046-050>051-056>058-064>065-071>073-077>080-021000-
SOUTHWEST LOWER MICHIGAN

CITY           SKY/WX    TMP DP  RH WIND       PRES   REMARKS
BATTLE CREEK   PTCLDY    22  11  62 NW13      30.29R WCI  10
BENTON HARBOR  PTCLDY    22  14  71 W12       30.37R WCI  10
BIG RAPIDS     CLEAR     18  10  71 W7        30.24R WCI   9
COLDWATER      CLEAR     17  13  86 W8        30.29R WCI   7
FREMONT        FAIR      19   7  61 NW9       30.29R WCI   7
HOLLAND        MOCLDY    25  12  58 NW10G18   30.34R WCI  15
GRAND RAPIDS   CLEAR     21  10  62 W12       30.29R WCI   9
IONIA          FAIR      22  11  63 NW10      30.27R WCI  11
KALAMAZOO      CLEAR     22  11  62 NW10      30.31R WCI  11
LUDINGTON      PTCLDY    24  12  59 NW12G20   30.29R WCI  13
MARSHALL       PTCLDY    18  14  84 W8        30.27S WCI   8
MOUNT PLEASANT CLEAR     20  11  68 W8        30.23R WCI  10
MUSKEGON       MOCLDY    25  12  58 NW10G22   30.32R WCI  15
SOUTH HAVEN    PTCLDY    24  15  66 NW10      30.35S WCI  14
$$
MIZ016>042-021000-
NORTHERN LOWER MICHIGAN

CITY           SKY/WX    TMP DP  RH WIND       PRES   REMARKS
ALPENA         CLEAR     18  10  71 W7        30.14R WCI   9
BEAVER ISLAND  PTCLDY    18  12  79 W8        30.20R WCI   7
BELLAIRE       MOCLDY    22  12  66 W6        30.22R WCI  14
CADILLAC       CLEAR     15   8  75 W6        30.18R WCI   6
CHARLEVOIX     PTCLDY    18  12  78 W9        30.23R WCI   6
FRANKFORT      MOCLDY    23  14  67 NW16G24   30.26R WCI  10
GAYLORD        LGT SNOW  17  11  77 W9G18     30.12R WCI   6
GRAYLING       FLURRIES  16  11  82 W6        30.17R WCI   7
HARBOR SPRINGS CLOUDY    19  11  73 W7        30.18R WCI  10
HOUGHTON LAKE  FAIR      13   7  77 W8        30.18R WCI   2
MANISTEE       MOCLDY    23  10  58 NW17G23   30.28R WCI   9
OSCODA         CLEAR     19  11  73 W8        30.16S WCI   9
PELLSTON       FAIR      19  10  68 W14       30.17R WCI   6
ROGERS CITY    CLEAR     19  13  78 W9G16     30.14R WCI   8
TRAVERSE CITY  CLOUDY    22  11  62 NW15      30.23R WCI   9
$$
MIZ007>008-015-021000-
EASTERN UPPER MICHIGAN

CITY           SKY/WX    TMP DP  RH WIND       PRES   REMARKS
KINROSS        CLOUDY    18  16  93 W10       30.11R WCI   6
MACKINAC ISLAN PTCLDY    17  11  75 W14G21    30.14R WCI   3
NEWBERRY       CLOUDY    18  10  73 W15G21    30.14R WCI   3
S. S. MARIE    CLOUDY    19  11  70 W17G24    30.09R WCI   4
MUNISING         N/A     20  11  68 N14G28    30.21R WCI   7
$$
MIZ004>006-011>014-085-021000-
CENTRAL UPPER MICHIGAN

CITY           SKY/WX    TMP DP  RH WIND       PRES   REMARKS
MANISTIQUE     LGT SNOW  18  15  89 W9        30.20R WCI   6
ESCANABA       MOCLDY    10   5  79 W5        30.26R WCI   2
MENOMINEE      CLEAR     14   3  62 W3        30.28R
SAWYER-GWINN   FLURRIES  15   6  67 NW16G22   30.20R WCI   0
$$
MIZ001>003-009>011-084-021000-
WESTERN UPPER MICHIGAN

CITY           SKY/WX    TMP DP  RH WIND       PRES   REMARKS
IRON MOUNTAIN  CLOUDY    15   8  73 NW8       30.22R WCI   4
HOUGHTON       MOCLDY    14   5  67 W17       30.21R WCI  -3
COPPER HARBOR    N/A     16   6  65 N20G25    30.21R WCI  -1
IRONWOOD       CLOUDY    16   7  67 NW16      30.26S WCI   0
$$

ABBREVIATIONS USED IN REMARKS
   TC - TEMPERATURE IN CELSIUS
  WCI - WIND CHILL INDEX
   HX - HEAT INDEX
  VSB - VISIBILITY



USA.gov is the U.S. government's official web portal to all federal, state and local government web resources and services.